User: anonymous   Login
Location: Unspecified
(0.0000°N, 0.0000°E)
Time: 02:51:07
(UTC+00:00)
Language:

Kosmos-2233 - Orbit

View from above orbital plane
View from above orbital plane
View from above satellite
View from above satellite

Ground track
Ground track

The orbit data is extracted from the following two-line orbital elements,

1 22487U 93008A   17147.48107376 +.00000005 +00000-0 -10479-4 0  9990
2 22487 082.9433 115.7269 0038177 359.0318 121.2740 13.75759585215482
Epoch (UTC): 27 May 2017 11:32:44
Eccentricity: 0.0038177
inclination: 82.9433°
perigee height: 951 km
apogee height: 1007 km
right ascension of ascending node: 115.7269°
argument of perigee: 359.0318°
revolutions per day: 13.75759585
mean anomaly at epoch: 121.2740°
orbit number at epoch: 21548

The dashed part of the orbit path shows where the satellite is in the earth's shadow,  

DLR